OKEAN O

Satellite information

Favourite Embed

Satellite Type and Status

PAYLOADIN ORBIT

Key statistics

Satellite OKEAN O at a glance.

Uptime

9646

Days in orbit

Revolutions

≈ 14.8

Per day

Orbit

SSO

Sun Synchronous Orbit

Inclination

98.0

Latest

Satellite identification and parameters

Extended collection of information and parameters for OKEAN O.

Object identification

Identified? True

Debris? False

Object name: OKEAN O

International designator: 1999-039A

Object number (NORAD): 25860

Object ID (CCSDS): 25860

Country: COMMONWEALTH OF INDEPENDENT STATES (CIS)

Current information (Y/N): Y

RCS size: LARGE

Orbital parameters

Period: 97.287 minutes

Inclination: 97.9603 deg

SMA: 7006.956 km

Apoapsis: 629.4 km

Periapsis: 628.242 km

RAAN: 41.8876 deg

Eccentricy: 0.00008264

Argument of periapsis: 97.1754 deg

Mean anomaly: 262.9551 deg

Mean motion: 14.80160086 rev/day

Mean motion (dot): 0.00001239 rev/day2

B* drag term: 0.00017011853 1/REarth

Two-line elements (TLE)

Creation date: Dec. 12, 2025, 10:14 a.m.

Reference frame: TEME

Reference center: EARTH

Epoch: Dec. 12, 2025, 4:20 a.m. UTC

TLE line 0: 0 OKEAN O

TLE line 1: 1 25860U 99039A 25346.18116168 .00001239 00000-0 17012-3 0 9992

TLE line 2: 2 25860 97.9603 41.8876 0000826 97.1754 262.9551 14.80160086421449

Live tracking on map

Real-time ground track for satellite OKEAN O.

In-orbit conjunctions

A list of the most updated potential collisions computed for object OKEAN O.

Target Orbit TCA Probability of collision Miss distance Type
CZ-6A DEB LEO 2025-11-22 16:39:56 0.000398292 178.0 (m) DEBRIS
PEGASUS DEB LEO 2025-06-13 20:05:05 0.0001005626 327.0 (m) DEBRIS
ATLAS 41E DEB SSO 2025-05-22 00:53:43 0.0006878689 270.0 (m) DEBRIS
CZ-6A DEB LEO 2025-03-21 17:16:29 0.0001515688 162.0 (m) DEBRIS
FENGYUN 1C DEB SSO 2024-11-15 07:17:42 0.0001426938 430.0 (m) DEBRIS

Associated space launch

Okean-O was a joint Ukrainian and Russian remote sensing satellite program designed as a follow on to the Okean-O1 series. It was designed to gather remote sensing data crucial for research of natural resources of the Earth and world oceans. The mission also included ecological monitoring and management of externalities (weather forecast, hazards prevention).

OKEAN O was lifted into orbit during the mission ‘Zenit-2 | Okean-O’, on board a Zenit-2 space rocket.

The launch took place on July 17, 1999, 5:38 a.m. from 45/1.

For more information about the launch, click the button.

Launch to space Zenit-2 | Okean-O
Zenit-2 | Okean-O

Agency: N/A

Status: Launch Successful

Launch date: July 17, 1999, 5:38 a.m. UTC

Rocket: Zenit-2

Launch pad: 45/1

Location: Baikonur Cosmodrome, Republic of Kazakhstan

...

Latest news about this satellite

There are no fresh news available about this satellite. Check back as we update our databases every day.


Newsletter sign-up

Weekly statistics, charts and insights to help you stay on top of the space industry.